Wind_Speed
18 20 19 19 15 13 12 11 9 17 18 27 30 30 29 36 38 36 33 34 33 31 31 33 34 33 36 39 41 43 41 38 39 39 36 38 39 38 34 38 36 30 28 28
20 21 22 21 20 19 17 16 14 10 15 19 22 28 34 27 29 35 35 34 36 37 36 37 37 35 35 38 39 41 41 40 37 37 38 38 40 39 34 33 32 31 32 30
26 25 23 25 25 24 23 22 20 17 18 19 18 15 22 22 33 34 36 36 40 37 35 33 33 34 31 32 34 38 40 42 40 40 39 39 42 41 37 33 32 35 33 31
32 30 29 27 27 30 26 27 26 27 24 21 24 21 11 22 28 32 35 39 39 39 36 36 36 36 37 31 32 33 40 45 44 43 43 39 39 40 40 36 37 34 33 34
36 32 31 32 34 33 33 32 32 31 31 31 23 31 19 20 21 27 33 35 37 41 41 39 37 36 37 35 29 30 38 43 46 44 43 40 40 40 39 37 36 35 37 35
33 34 33 33 33 33 35 36 37 38 38 37 31 32 35 27 26 22 23 31 38 38 41 42 41 38 39 37 36 30 37 41 45 47 45 38 39 41 40 40 38 40 40 36
31 32 29 30 32 33 34 35 38 41 43 42 40 38 36 35 30 27 23 24 32 37 42 42 40 41 40 40 37 36 36 41 43 43 48 40 39 44 43 42 42 42 39 36
31 31 31 31 33 36 37 38 40 43 45 45 45 44 39 40 35 32 29 27 26 32 37 40 42 41 40 40 39 39 37 41 43 42 46 41 41 46 43 45 45 43 39 38
34 31 33 34 36 39 42 43 44 45 45 47 46 40 35 38 38 39 39 32 31 30 34 37 39 41 41 40 38 38 39 42 41 44 46 41 44 47 46 47 46 43 41 39
38 37 38 40 43 45 47 49 48 50 50 49 48 46 37 47 49 47 45 42 38 37 36 36 36 39 41 41 40 39 40 41 42 45 46 40 45 47 49 46 47 44 42 40
44 43 42 44 48 48 48 51 53 51 51 50 49 50 46 42 41 41 40 46 45 41 37 37 36 38 40 41 42 40 41 43 42 44 47 44 45 47 49 48 48 46 43 41
44 45 45 45 46 51 51 50 51 52 51 51 50 49 49 47 37 41 38 39 40 40 44 43 39 36 39 39 42 43 44 41 44 40 49 47 44 49 50 52 50 46 44 42
44 46 47 49 50 49 47 49 49 50 51 51 51 50 48 47 47 41 43 43 46 45 45 45 43 38 38 41 41 43 44 43 46 44 50 48 43 49 52 52 50 47 45 43
45 46 47 49 51 51 50 50 51 52 54 54 53 51 48 49 51 52 57 56 50 42 47 47 45 41 39 40 43 43 47 46 45 48 47 45 47 46 53 55 52 50 48 45
47 47 48 49 51 52 52 51 53 56 56 59 51 55 50 52 55 56 57 58 60 62 58 53 51 48 49 44 42 46 43 47 47 47 50 51 50 47 52 56 55 53 50 47
47 48 51 53 54 55 57 56 56 56 57 59 59 59 57 59 62 62 62 62 62 60 60 63 62 56 55 51 45 47 48 45 47 47 47 52 44 53 50 54 56 55 52 48
51 53 56 59 57 59 65 59 56 56 59 59 62 60 64 65 65 65 67 67 65 63 62 63 63 61 61 60 54 50 48 49 48 49 47 51 51 54 48 52 54 54 53 50
55 57 58 62 61 66 62 61 61 59 59 60 64 66 69 68 67 68 71 73 70 68 64 65 65 64 63 61 56 52 51 51 51 45 51 49 53 51 51 49 53 54 54 51
56 58 61 63 65 68 65 62 56 56 61 61 67 68 66 71 71 75 74 74 76 76 72 66 66 67 67 66 66 61 57 53 53 51 46 54 52 55 60 51 51 55 53 51
61 60 58 58 60 66 63 55 43 39 50 48 45 50 49 48 53 61 59 69 74 79 79 74 69 67 69 68 66 64 60 54 54 53 49 50 52 54 52 60 50 51 53 51
49 49 49 52 51 52 48 40 30 45 44 31 32 38 44 44 45 47 44 47 56 68 78 80 74 69 68 69 67 65 63 58 55 52 48 49 52 51 53 56 60 51 50 52
41 42 45 47 50 50 35 33 37 38 37 38 40 40 42 45 48 50 45 38 37 46 58 73 78 72 69 68 68 65 66 63 59 54 46 50 52 54 53 52 57 63 57 53
38 35 38 40 46 40 30 28 27 34 39 41 45 45 46 50 52 46 36 29 29 31 36 49 70 75 70 68 68 66 65 66 62 58 48 48 53 49 55 55 54 57 56 61
29 24 30 29 26 30 30 36 44 39 40 42 45 47 47 50 39 37 33 30 30 31 31 34 49 69 72 69 66 66 64 65 64 59 51 44 49 50 52 54 56 55 61 54
28 26 30 39 35 38 36 35 35 39 45 48 47 47 44 40 35 34 34 30 32 35 36 35 36 57 69 69 65 64 63 62 63 59 54 46 46 48 43 54 53 54 53 61
32 30 34 36 32 36 39 39 42 43 44 46 44 41 36 34 30 34 34 33 34 38 43 43 39 45 58 66 65 62 62 60 61 60 55 48 44 44 42 49 51 55 55 56
Wind_Direction
298 300 299 305 311 311 309 312 297 265 263 262 263 258 256 248 246 248 244 246 245 246 246 246 249 248 246 239 239 240 239 238 239 240 241 241 244 242 252 248 242 244 245 240
286 291 292 293 293 292 293 296 298 293 277 284 265 259 259 257 256 250 249 247 245 242 242 244 245 246 244 241 239 240 238 233 233 235 237 236 240 240 244 244 240 242 238 230
284 280 281 287 287 286 291 290 290 287 285 291 295 287 268 266 255 256 255 248 245 248 248 248 251 255 252 245 240 238 238 234 229 228 233 230 238 238 245 239 235 231 232 223
282 278 282 278 278 282 281 281 283 284 279 275 283 285 289 266 259 250 252 256 253 249 247 244 243 248 253 254 244 237 238 236 231 230 229 227 234 240 246 233 232 230 226 222
276 277 274 277 279 279 280 279 277 279 279 277 274 280 275 273 274 265 252 245 250 252 249 248 244 244 250 253 252 240 234 236 233 229 226 226 230 234 241 238 232 230 223 223
270 273 274 274 276 280 281 281 279 277 275 273 276 273 286 275 271 271 263 252 248 244 246 249 249 245 245 249 251 246 233 234 234 231 228 224 231 230 233 234 227 224 222 224
272 270 273 277 278 279 281 281 280 278 277 274 273 271 276 279 273 265 265 259 249 248 246 245 246 246 246 246 248 247 237 233 233 236 230 219 231 229 228 224 221 221 221 224
265 268 272 274 277 280 280 279 277 278 278 277 276 276 276 273 272 267 260 257 260 253 248 244 243 243 242 244 244 245 244 233 233 235 229 217 228 229 224 219 217 218 220 223
267 270 275 276 277 278 279 281 282 279 275 273 271 268 263 260 263 264 264 259 257 259 257 252 244 241 240 242 242 241 244 238 234 233 233 218 228 228 224 215 217 218 220 222
267 269 271 273 276 278 279 278 280 280 277 274 269 266 258 259 260 261 261 259 257 254 256 253 247 243 239 235 238 238 239 241 237 231 237 217 229 227 225 212 218 219 220 223
268 268 274 275 276 276 277 277 276 275 272 272 269 265 264 265 267 264 263 260 255 249 249 252 252 245 242 237 234 235 235 235 235 230 238 216 229 224 223 218 220 220 222 225
271 272 271 278 281 279 278 278 275 271 269 267 265 260 262 263 263 258 260 262 248 243 245 247 249 248 239 239 237 232 232 235 231 234 240 218 227 223 223 221 222 222 225 226
276 278 279 279 279 278 276 273 269 268 267 264 262 260 259 254 241 239 245 245 252 251 246 247 248 247 244 242 238 235 233 233 232 234 239 227 221 225 223 223 223 224 226 227
281 282 282 280 278 276 274 275 273 270 268 267 263 261 258 259 257 253 254 248 237 235 244 249 251 252 245 241 240 236 234 233 234 233 235 235 218 223 223 224 224 225 227 228
280 281 280 278 276 275 274 272 270 272 271 267 269 265 262 258 254 251 250 250 247 243 241 243 244 245 247 241 241 236 236 235 234 234 235 236 222 218 222 223 224 226 227 229
282 282 279 277 275 273 270 268 267 266 269 271 271 268 265 262 257 254 251 247 248 250 250 245 244 244 241 241 246 239 235 237 233 233 233 237 238 216 221 224 225 226 228 229
281 281 278 276 273 270 269 272 272 270 266 267 266 267 265 264 262 261 259 254 250 247 247 249 247 241 238 241 247 241 238 239 235 232 231 232 236 217 220 223 224 226 227 229
284 282 280 278 275 271 275 273 271 273 272 270 268 265 266 268 267 262 261 260 256 251 245 246 247 247 240 238 237 240 239 240 237 234 233 230 234 229 217 224 223 225 228 230
283 280 280 278 276 276 271 276 279 277 271 271 271 270 275 274 274 268 263 259 258 256 251 244 243 243 244 241 238 240 243 240 237 235 234 229 230 233 222 218 225 226 228 231
284 282 282 280 279 277 277 272 278 267 260 268 282 276 272 276 274 272 268 262 258 254 253 248 242 239 241 240 239 238 237 237 235 237 234 225 227 230 233 218 224 228 227 230
291 288 280 276 274 276 283 282 267 260 263 273 260 271 279 279 285 294 284 269 260 252 250 249 244 239 237 238 236 236 233 232 233 234 238 232 224 228 229 229 221 226 226 226
296 285 275 271 273 278 293 283 265 271 268 265 270 273 278 287 289 289 284 273 266 259 251 247 243 238 235 234 234 234 232 230 232 233 236 236 229 227 229 230 226 223 229 229
290 282 284 277 274 279 282 273 280 285 277 272 271 269 276 281 282 282 275 255 262 266 262 254 244 236 233 231 230 231 232 230 230 233 236 232 233 232 227 230 229 225 226 230
319 280 269 277 278 280 276 277 278 274 277 274 275 278 280 281 282 271 269 261 264 267 271 266 249 237 230 229 226 227 229 229 228 231 233 233 233 234 228 226 230 228 229 228
309 301 286 269 274 279 277 276 279 275 273 274 275 277 279 282 275 267 261 262 266 266 272 268 264 240 230 225 224 223 224 226 225 227 229 232 230 234 230 224 227 228 228 231
300 296 285 285 285 281 282 276 275 274 274 270 276 275 279 280 277 270 265 265 271 276 278 282 266 248 227 222 221 220 221 222 223 224 226 229 228 231 228 226 229 227 229 231
Height
5663 5663 5661 5659 5658 5657 5655 5654 5654 5655 5656 5657 5661 5661 5667 5670 5669 5671 5674 5675 5677 5678 5681 5684 5686 5688 5691 5695 5699 5704 5708 5713 5717 5722 5727 5731 5734 5737 5740 5742 5746 5750 5753 5756
5660 5658 5656 5655 5654 5653 5652 5651 5651 5651 5650 5649 5653 5655 5657 5661 5660 5658 5661 5664 5667 5670 5671 5673 5676 5679 5682 5686 5691 5695 5699 5704 5709 5714 5717 5721 5725 5729 5733 5734 5739 5742 5745 5749
5653 5651 5651 5650 5648 5647 5647 5646 5647 5647 5646 5645 5645 5648 5650 5650 5647 5650 5652 5656 5660 5664 5666 5668 5670 5672 5675 5678 5682 5685 5690 5695 5698 5704 5707 5711 5715 5720 5725 5727 5730 5732 5737 5742
5644 5644 5643 5643 5642 5640 5642 5641 5640 5640 5641 5641 5640 5641 5644 5639 5639 5643 5645 5647 5650 5653 5656 5659 5661 5663 5665 5669 5673 5677 5680 5685 5689 5695 5698 5703 5708 5712 5715 5718 5721 5726 5731 5735
5635 5635 5635 5635 5633 5633 5633 5634 5634 5633 5633 5633 5636 5631 5637 5632 5633 5634 5637 5638 5640 5642 5646 5650 5652 5655 5656 5658 5664 5668 5671 5674 5679 5684 5689 5693 5698 5702 5705 5708 5714 5719 5723 5727
5626 5625 5626 5626 5624 5624 5624 5625 5625 5624 5624 5624 5628 5626 5621 5625 5626 5626 5627 5627 5630 5632 5636 5639 5642 5645 5648 5650 5651 5657 5660 5664 5669 5673 5678 5684 5689 5692 5696 5701 5706 5710 5714 5720
5617 5616 5616 5616 5616 5615 5615 5615 5615 5615 5614 5616 5617 5618 5617 5613 5616 5620 5621 5620 5621 5622 5625 5627 5630 5634 5638 5641 5643 5646 5651 5654 5658 5661 5667 5672 5678 5682 5686 5691 5695 5701 5707 5712
5607 5607 5607 5607 5606 5605 5604 5605 5605 5603 5604 5606 5607 5607 5606 5604 5605 5610 5611 5612 5613 5613 5614 5615 5618 5622 5626 5630 5634 5636 5639 5644 5648 5651 5656 5661 5667 5671 5676 5681 5686 5692 5698 5703
5596 5597 5596 5595 5595 5594 5594 5594 5594 5593 5594 5594 5597 5600 5593 5592 5595 5599 5601 5603 5604 5604 5604 5605 5607 5610 5614 5618 5623 5626 5629 5633 5638 5642 5645 5650 5656 5661 5666 5670 5677 5684 5690 5695
5586 5586 5585 5584 5582 5582 5582 5582 5580 5581 5581 5581 5584 5584 5581 5582 5585 5587 5590 5592 5593 5594 5594 5595 5596 5599 5602 5606 5610 5614 5618 5622 5627 5631 5634 5639 5646 5651 5655 5661 5669 5675 5680 5686
5573 5574 5575 5572 5569 5570 5571 5569 5568 5567 5567 5567 5569 5569 5568 5570 5572 5574 5576 5580 5582 5582 5583 5584 5585 5588 5591 5594 5598 5602 5606 5610 5616 5620 5622 5627 5635 5642 5647 5654 5660 5665 5671 5677
5559 5559 5561 5561 5554 5553 5556 5555 5554 5551 5555 5553 5553 5556 5558 5560 5562 5562 5564 5566 5567 5569 5571 5572 5574 5577 5580 5583 5586 5590 5594 5599 5605 5609 5612 5618 5624 5632 5639 5645 5651 5658 5663 5668
5545 5544 5545 5546 5542 5539 5538 5539 5538 5536 5537 5539 5537 5544 5544 5548 5551 5549 5549 5552 5554 5556 5559 5561 5563 5566 5569 5572 5575 5578 5583 5587 5592 5599 5602 5607 5613 5621 5629 5635 5642 5648 5653 5658
5530 5530 5530 5530 5525 5524 5524 5524 5523 5521 5520 5520 5524 5528 5529 5530 5532 5534 5532 5537 5539 5541 5545 5550 5552 5554 5557 5560 5563 5566 5570 5574 5580 5586 5590 5595 5601 5608 5616 5624 5631 5637 5643 5649
5515 5516 5514 5512 5509 5507 5509 5511 5507 5503 5503 5498 5512 5506 5518 5515 5513 5513 5515 5516 5521 5527 5530 5534 5537 5540 5544 5547 5550 5555 5559 5563 5569 5574 5579 5582 5589 5595 5603 5611 5619 5626 5632 5638
5501 5499 5496 5495 5493 5491 5490 5492 5492 5490 5488 5485 5485 5488 5491 5490 5489 5492 5496 5500 5502 5507 5512 5516 5520 5525 5529 5534 5538 5542 5546 5551 5556 5562 5567 5571 5575 5583 5590 5598 5607 5614 5621 5627
5486 5481 5476 5475 5474 5469 5468 5478 5476 5474 5470 5468 5466 5474 5463 5464 5469 5473 5474 5478 5484 5490 5493 5497 5502 5508 5514 5519 5524 5529 5533 5539 5543 5549 5554 5559 5564 5571 5578 5586 5594 5603 5610 5616
5468 5463 5456 5452 5452 5445 5459 5456 5454 5452 5451 5447 5446 5449 5442 5445 5448 5452 5451 5454 5461 5468 5475 5479 5484 5489 5496 5502 5509 5514 5519 5524 5531 5536 5541 5547 5552 5559 5566 5575 5583 5590 5598 5605
5450 5444 5437 5430 5427 5428 5434 5436 5437 5427 5427 5424 5423 5429 5422 5422 5420 5424 5431 5434 5437 5440 5448 5459 5466 5471 5477 5484 5492 5499 5505 5511 5517 5522 5529 5534 5541 5548 5555 5562 5571 5578 5585 5593
5433 5425 5419 5413 5403 5401 5414 5423 5418 5410 5394 5411 5413 5409 5404 5404 5399 5404 5405 5405 5412 5415 5421 5432 5443 5451 5458 5466 5474 5482 5489 5496 5502 5509 5515 5522 5528 5535 5542 5550 5558 5565 5573 5580
5411 5406 5401 5396 5390 5386 5394 5401 5400 5388 5393 5401 5395 5393 5392 5390 5390 5386 5386 5385 5386 5390 5396 5405 5419 5430 5438 5447 5457 5465 5473 5481 5488 5495 5502 5509 5515 5522 5529 5536 5545 5553 5560 5566
5394 5390 5387 5383 5379 5375 5387 5386 5382 5383 5380 5383 5384 5382 5379 5379 5376 5372 5371 5371 5371 5372 5374 5379 5390 5406 5418 5427 5437 5448 5456 5465 5474 5482 5490 5496 5503 5509 5516 5524 5531 5540 5547 5553
5380 5380 5376 5375 5370 5373 5374 5372 5372 5371 5369 5370 5369 5370 5366 5363 5361 5359 5360 5359 5359 5359 5359 5362 5367 5383 5397 5407 5418 5431 5439 5449 5459 5468 5477 5483 5490 5496 5503 5511 5519 5526 5533 5541
5372 5369 5366 5363 5364 5360 5360 5361 5360 5359 5357 5354 5354 5354 5352 5348 5347 5347 5347 5348 5348 5349 5349 5348 5349 5357 5373 5386 5400 5412 5423 5434 5445 5455 5464 5470 5477 5484 5491 5498 5506 5513 5521 5529
5365 5360 5358 5352 5352 5349 5349 5350 5349 5346 5343 5341 5341 5339 5337 5335 5335 5334 5334 5337 5338 5338 5338 5336 5336 5338 5353 5368 5382 5395 5408 5419 5431 5441 5451 5458 5465 5471 5478 5486 5493 5501 5508 5515
5358 5353 5346 5340 5342 5339 5339 5339 5333 5331 5330 5329 5327 5328 5327 5324 5323 5322 5322 5324 5326 5326 5325 5323 5322 5322 5333 5350 5366 5380 5394 5406 5417 5429 5438 5447 5453 5460 5467 5474 5481 5487 5495 5500